Location: The Jewett Observatory
(46.7288°N, 117.1525°W)
Time: 11:45:26
(UTC-07:00)

Cosmos 1633 - Visible Passes

Search period start: 06 May 2016 00:00
Search period end: 16 May 2016 00:00
Orbit: 475 x 495 km, 82.5° (Epoch: 06 May)

Date Brightness Start Highest point End Pass type
(mag) Time Alt. Az. Time Alt. Az. Time Alt. Az.
06 May 2.8 21:15:15 10° N 21:18:48 52° ENE 21:21:26 17° SSE visible
06 May 5.4 22:52:17 10° WNW 22:53:24 11° W 22:54:31 10° WSW visible
07 May 3.4 20:50:57 10° N 20:54:16 32° ENE 20:57:31 10° SE visible
07 May 5.1 22:26:40 10° NW 22:29:06 17° W 22:31:29 10° SW visible
08 May 4.5 22:01:42 10° NNW 22:04:44 26° W 22:07:46 10° SSW visible
09 May 3.7 21:36:55 10° NNW 21:40:21 40° W 21:43:44 10° SSW visible
10 May 2.9 21:12:18 10° NNW 21:15:54 67° W 21:19:28 10° S visible
11 May 2.5 20:47:46 10° N 20:51:25 75° E 20:55:00 10° SSE visible
12 May 5.5 21:59:55 10° WNW 22:01:32 13° W 22:03:07 10° WSW visible
13 May 5.2 21:34:34 10° NW 21:37:10 19° W 21:39:47 10° SW visible
14 May 4.5 21:09:37 10° NNW 21:12:48 29° W 21:15:56 10° SSW visible
